Flag for Switzerland Weather past 2 weeks in Pratteln, Basel-Land, Switzerland

Now
34 °F

Passing clouds.


Feels Like: 26 °F
Forecast: 22 / 34 °F
Wind: 10 mph from West

Location: Bale-Mulhouse

Current Time: Feb 1, 2015 at 7:29:25 AM

Latest Report: Feb 1, 2015 at 7:00 AM


Visibility: N/A

Pressure: 29.24 "Hg

Humidity: 87%

Dew point: 30 °F

Location of PrattelnLocation

Historic Weather in Pratteln — Graph

°F

Pratteln temperature yesterday

Maximum temperature yesterday: 41 °F (at 12:00 PM)
Minimum temperature yesterday: 30 °F (at 8:30 AM)
Average temperature yesterday: 35 °F

Past Weeks' High & Low Weather Summary

 TemperatureHumidityPressure
High45 °F (Jan 28, 11:12 PM)100% (Jan 17, 2:00 PM)30.45 "Hg (Jan 17, 2:00 PM)
Low27 °F (Jan 18, 4:30 AM)57% (Jan 31, 12:30 PM)28.82 "Hg (Jan 30, 12:30 AM)
Average35 °F88%29.86 "Hg
* Reported Jan 17 6:00 AM — Feb 1 6:30 AM, Pratteln, Weather by CustomWeather, © 2014

Note: Actual official high and low records may vary slightly from our data, if they occured in-between our weather recording intervals... More about our weather records

Advertising

Pratteln weather history for previous 24 hours

 ConditionsComfort  
Time TempWeatherWind HumidityBarometerVisibility
6:30 AM
Feb 1
34 °FPartly cloudy.9 mph87%29.24 "HgN/A
6:00 AM34 °FPartly cloudy.8 mph87%29.24 "HgN/A
5:30 AM34 °FPassing clouds.6 mph87%29.24 "HgN/A
5:00 AM34 °FPassing clouds.14 mph87%29.21 "HgN/A
4:30 AM34 °FPartly cloudy.10 mph87%29.21 "HgN/A
4:00 AM34 °FPassing clouds.7 mph93%29.21 "HgN/A
3:30 AM32 °FLight snow. Partly cloudy.6 mph100%29.21 "Hg2 mi
3:00 AM34 °FHeavy snow. Fog.10 mph87%29.21 "Hg1 mi
2:30 AM34 °FMostly cloudy.6 mph81%29.18 "HgN/A
2:00 AM34 °FClear.5 mph81%29.18 "HgN/A
1:30 AM32 °FOvercast.6 mph87%29.21 "HgN/A
12:00 AM32 °FPassing clouds.6 mph87%29.21 "HgN/A
11:30 PM
Jan 31
30 °FPassing clouds.2 mph93%29.21 "HgN/A
11:00 PM30 °FPassing clouds.2 mph93%29.21 "HgN/A
10:30 PM32 °FPassing clouds.2 mph93%29.21 "HgN/A
10:00 PM34 °FPassing clouds.5 mph87%29.21 "HgN/A
9:30 PM32 °FPassing clouds.6 mph93%29.21 "HgN/A
9:00 PM34 °FPartly cloudy.6 mph87%29.21 "HgN/A
8:30 PM34 °FClear.7 mph87%29.21 "Hg10 mi
8:00 PM36 °FPassing clouds.12 mph87%29.18 "HgN/A
7:30 PM36 °FPassing clouds.8 mph87%29.18 "HgN/A
7:00 PM36 °FPassing clouds.6 mph87%29.18 "HgN/A
6:30 PM36 °FPassing clouds.9 mph87%29.15 "HgN/A
6:00 PM37 °FPassing clouds.8 mph81%29.15 "HgN/A
5:30 PM37 °FPartly cloudy.7 mph87%29.12 "HgN/A
5:00 PM37 °FPartly sunny.8 mph87%29.12 "HgN/A
4:30 PM37 °FPartly sunny.7 mph87%29.12 "HgN/A
4:00 PM36 °FPartly sunny.3 mph93%29.12 "HgN/A
3:30 PM36 °FPartly sunny.3 mph93%29.12 "HgN/A
3:00 PM36 °FLight rain. Partly sunny.3 mph93%29.09 "HgN/A
2:30 PM34 °FPartly sunny.3 mph100%29.09 "HgN/A
2:00 PM34 °FSnow flurries. Broken clouds.5 mph93%29.09 "Hg2 mi
1:30 PM37 °FSprinkles. Partly sunny.13 mph81%29.09 "Hg4 mi
1:00 PM41 °FPartly sunny.7 mph61%29.09 "HgN/A
12:30 PM41 °FPartly sunny.2 mph57%29.09 "HgN/A
12:00 PM41 °FPartly sunny.6 mph61%29.09 "HgN/A
11:30 AM39 °FPartly sunny.6 mph65%29.09 "HgN/A
11:00 AM39 °FPartly sunny.6 mph65%29.09 "HgN/A
10:30 AM37 °FPartly sunny.7 mph75%29.09 "HgN/A
10:00 AM36 °FPartly sunny.7 mph81%29.06 "HgN/A
9:30 AM34 °FPartly sunny.3 mph93%29.09 "HgN/A
9:00 AM32 °FBroken clouds.6 mph93%29.09 "HgN/A
8:30 AM30 °FPartly sunny.3 mph93%29.06 "HgN/A
8:00 AM32 °FPartly sunny.2 mph87%29.06 "HgN/A
7:30 AM32 °FPassing clouds.5 mph87%29.06 "HgN/A
7:00 AM32 °FPassing clouds.1 mph87%29.06 "HgN/A
Weather by CustomWeather, © 2014

See weather overviewHow to use our weather pages